Modesto, CA

4:21 PM PDT on September 28, 2016 (GMT -0700)
Modesto City-County-Sham

Weather History for KMOD - April, 2014

Change the Weather History Date:

Tuesday, April 15, 2014

  Actual Average Record
Temperature  
Mean Temperature 70 °F -  
Max Temperature 84 °F 74 °F 93 °F (1994)
Min Temperature 55 °F 49 °F 37 °F (1970)
Degree Days  
Heating Degree Days 0 4  
Month to date heating degree days 65 81  
Since 1 July heating degree days 1924 2086  
Cooling Degree Days 5 1  
Month to date cooling degree days 26 11  
Year to date cooling degree days 26 16  
Growing Degree Days 18 (Base 50)    
Moisture  
Dew Point 43 °F    
Average Humidity 46    
Maximum Humidity 72    
Minimum Humidity 20    
Precipitation  
Precipitation 0.00 in 0.03 in 0.26 in (1978)
Month to date precipitation 0.59 0.55  
Year to date precipitation 5.14 7.58  
Since 1 July precipitation 6.63  
Snow  
Snow 0.00 in - - ()
Month to date snowfall 0.0  
Since 1 July snowfall 0.0  
Snow Depth -    
Sea Level Pressure  
Sea Level Pressure 29.92 in    
Wind  
Wind Speed 5 mph (NNW)    
Max Wind Speed 15 mph    
Max Gust Speed 19 mph    
Visibility 10 miles    
Events      
T = Trace of Precipitation, MM = Missing Value Source: NWS Daily Summary

Daily Weather History Graph

Daily Weather History Graph

Search for Another Location

Airport or City:

Trip Planner

Search our weather history database for the weather conditions in past years. The results will help you decide how hot, cold, wet, or windy it might be!

Date:

Astronomy

Apr. 15, 2014 Rise Set
Actual Time 6:28 AM PDT 7:39 PM PDT
Civil Twilight 6:01 AM PDT 8:06 PM PDT
Nautical Twilight 5:29 AM PDT 8:38 PM PDT
Astronomical Twilight 4:55 AM PDT 9:12 PM PDT
Moon 8:25 PM PDT (4/15) 6:40 AM PDT (4/15)
Length of Visible Light 14h 04m
Length of Day
13h 10m
Full, 100% of the Moon is Illuminated
Apr 15
Full
Apr 22
Last Quarter
Apr 28
New
May 6
First Quarter
May 14
Full

Hourly Weather History & Observations

Time (PDT) Temp. Dew Point Humidity Pressure Visibility Wind Dir Wind Speed Gust Speed Precip Events Conditions
12:53 AM 63.0 °F 48.9 °F 60% 30.01 in 10.0 mi Calm Calm - N/A   Clear
1:53 AM 63.0 °F 48.0 °F 58% 30.00 in 10.0 mi North 5.8 mph - N/A   Clear
2:53 AM 62.1 °F 46.0 °F 56% 29.98 in 10.0 mi North 3.5 mph - N/A   Clear
3:53 AM 60.1 °F 46.0 °F 60% 29.98 in 10.0 mi Calm Calm - N/A   Clear
4:53 AM 57.0 °F 45.0 °F 64% 29.97 in 10.0 mi NW 4.6 mph - N/A   Clear
5:53 AM 55.9 °F 45.0 °F 67% 29.96 in 10.0 mi NW 5.8 mph - N/A   Clear
6:53 AM 55.0 °F 46.9 °F 74% 29.98 in 10.0 mi NW 4.6 mph - N/A   Clear
7:53 AM 59.0 °F 46.0 °F 62% 29.99 in 10.0 mi NNW 5.8 mph - N/A   Clear
8:53 AM 64.9 °F 45.0 °F 48% 29.99 in 10.0 mi North 4.6 mph - N/A   Clear
9:53 AM 66.0 °F 46.0 °F 48% 29.99 in 10.0 mi Variable 4.6 mph - N/A   Clear
10:53 AM 73.0 °F 41.0 °F 31% 29.98 in 10.0 mi North 6.9 mph - N/A   Clear
11:53 AM 75.9 °F 37.9 °F 25% 29.95 in 10.0 mi Variable 3.5 mph - N/A   Clear
12:53 PM 80.1 °F 41.0 °F 25% 29.93 in 10.0 mi North 8.1 mph - N/A   Clear
1:31 PM 80.1 °F 41.0 °F 25% 29.93 in 4.0 mi NNW 8.1 mph - N/A   Haze
1:53 PM 82.0 °F 39.9 °F 22% 29.92 in 10.0 mi NNW 10.4 mph - N/A   Clear
2:53 PM 82.9 °F 37.0 °F 19% 29.90 in 10.0 mi NNW 11.5 mph - N/A   Clear
3:53 PM 82.9 °F 37.0 °F 19% 29.87 in 10.0 mi WNW 12.7 mph - N/A   Clear
4:53 PM 82.9 °F 37.0 °F 19% 29.86 in 10.0 mi WNW 10.4 mph - N/A   Clear
5:53 PM 81.0 °F 37.0 °F 21% 29.84 in 10.0 mi NW 10.4 mph - N/A   Clear
6:53 PM 78.1 °F 43.0 °F 29% 29.83 in 10.0 mi NNW 11.5 mph - N/A   Clear
7:53 PM 73.0 °F 37.0 °F 27% 29.83 in 10.0 mi NW 9.2 mph - N/A   Clear
8:53 PM 70.0 °F 46.0 °F 42% 29.85 in 10.0 mi WNW 8.1 mph - N/A   Clear
9:53 PM 66.9 °F 48.0 °F 51% 29.86 in 10.0 mi WNW 10.4 mph - N/A   Clear
10:53 PM 64.0 °F 45.0 °F 50% 29.86 in 10.0 mi NNW 5.8 mph - N/A   Clear
11:53 PM 63.0 °F 45.0 °F 52% 29.86 in 10.0 mi North 5.8 mph - N/A   Clear